This is the latest recevied weather packets stored in our database for station/object DK4MDA-13. If no packets are shown the sender has not sent any weather packets the latest 10 day(s).
| Time | Temp. | Humidity | Pressure | Rain* | Wind** | Luminosity | Snow |
|---|---|---|---|---|---|---|---|
| 1777940230 | 13.33° C | 93% | 1011.5 hPa | 0.25 mm | - | - | - |
| 1777939930 | 13.33° C | 93% | 1011.5 hPa | 0.25 mm | - | - | - |
| 1777939630 | 13.33° C | 93% | 1011.6 hPa | 0.51 mm | - | - | - |
| 1777939330 | 13.33° C | 93% | 1011.6 hPa | 0.51 mm | - | - | - |
| 1777939030 | 13.33° C | 93% | 1011.8 hPa | 0.51 mm | - | - | - |
| 1777938730 | 13.33° C | 93% | 1011.5 hPa | 0.51 mm | - | - | - |
| 1777938430 | 13.33° C | 93% | 1011.5 hPa | 0.76 mm | - | - | - |
| 1777938130 | 13.89° C | 93% | 1011.4 hPa | 0.76 mm | - | - | - |
| 1777937830 | 13.89° C | 93% | 1011.5 hPa | 1.27 mm | - | - | - |
| 1777937530 | 13.89° C | 93% | 1011.6 hPa | 1.78 mm | - | - | - |
| 1777937230 | 13.89° C | 93% | 1011.8 hPa | 2.54 mm | - | - | - |
| 1777936930 | 13.89° C | 93% | 1011.9 hPa | 3.3 mm | - | - | - |
| 1777936630 | 13.89° C | 93% | 1012.1 hPa | 4.32 mm | - | - | - |
| 1777936330 | 13.89° C | 93% | 1012.3 hPa | 5.59 mm | - | - | - |
| 1777936030 | 13.89° C | 93% | 1012.3 hPa | 7.87 mm | - | - | - |
| 1777935730 | 13.89° C | 92% | 1012.5 hPa | 10.16 mm | - | - | - |
| 1777935430 | 13.33° C | 92% | 1012.5 hPa | 10.16 mm | - | - | - |
| 1777935130 | 13.89° C | 92% | 1012.6 hPa | 10.16 mm | - | - | - |
| 1777934830 | 13.89° C | 92% | 1012.5 hPa | 9.91 mm | - | - | - |
| 1777934530 | 13.89° C | 92% | 1012.5 hPa | 9.91 mm | - | - | - |
| 1777934230 | 13.89° C | 91% | 1012.6 hPa | 9.4 mm | - | - | - |
| 1777933930 | 13.89° C | 91% | 1012.8 hPa | 8.89 mm | - | - | - |
| 1777933630 | 13.89° C | 90% | 1012.9 hPa | 7.87 mm | - | - | - |
| 1777933330 | 13.89° C | 90% | 1013 hPa | 7.11 mm | - | - | - |
| 1777933030 | 13.89° C | 89% | 1013 hPa | 6.6 mm | - | - | - |
* Rain latest hour (hover to see other rain measurements)
** Current wind speed in m/s (hover to see current wind gust speed)